Location: Recife
(8.0585°S, 34.8848°W)
Time: 05:22:32
(UTC-03:00)

Courier 1B - Pass Details

Date: 21 April 2026
Orbit: 962 x 1209 km, 28.3° (Epoch: 14 May)

Event Time Altitude Azimuth Distance (km) Brightness Sun altitude
Rises 11:25:54 0° 233° (SW) 4,108 10.7 69.9°
Reaches altitude 10° 11:28:55 10° 228° (SW) 3,130 10.2 69.8°
Maximum altitude 11:36:23 48° 155° (SSE) 1,487 9.0 69.4°
Drops below altitude 10° 11:43:29 10° 82° (E) 2,986 10.1 69.0°
Sets 11:46:18 0° 77° (ENE) 3,906 10.6 68.8°
